Ridgecrest, CA

8:39 PM PST on February 20, 2017 (GMT -0800)
China Lake NAWS

Weather History for KNID - March, 2014

Change the Weather History Date:

Wednesday, March 12, 2014

  Actual Average Record
Temperature  
Mean Temperature 58 °F -  
Max Temperature 66 °F 69 °F 87 °F (2007)
Min Temperature 50 °F 42 °F 33 °F (2009)
Degree Days  
Heating Degree Days 7    
Growing Degree Days 8 (Base 50)    
Moisture  
Dew Point 16 °F    
Average Humidity 21    
Maximum Humidity 27    
Minimum Humidity 13    
Precipitation  
Precipitation 0.00 in - - ()
Sea Level Pressure  
Sea Level Pressure 30.10 in    
Wind  
Wind Speed 11 mph (NNW)    
Max Wind Speed 21 mph    
Max Gust Speed 30 mph    
Visibility 10 miles    
Events      
Averages and records for this station are not official NWS values.
T = Trace of Precipitation, MM = Missing Value Source: NWS Daily Summary

Daily Weather History Graph

Daily Weather History Graph

Search for Another Location

Airport or City:

Trip Planner

Search our weather history database for the weather conditions in past years. The results will help you decide how hot, cold, wet, or windy it might be!

Date:

Astronomy

Mar. 12, 2014 Rise Set
Actual Time 7:05 AM PDT 6:55 PM PDT
Civil Twilight 6:40 AM PDT 7:21 PM PDT
Nautical Twilight 6:10 AM PDT 7:50 PM PDT
Astronomical Twilight 5:40 AM PDT 8:20 PM PDT
Moon 3:36 PM PDT (3/12) 4:34 AM PDT (3/12)
Length of Visible Light 12h 41m
Length of Day
11h 50m
Waxing Gibbous, 86% of the Moon is Illuminated
Mar 12
Waxing Gibbous
Mar 16
Full
Mar 23
Last Quarter
Mar 30
New
Apr 7
First Quarter

Hourly Weather History & Observations

Time (PDT) Temp. Dew Point Humidity Pressure Visibility Wind Dir Wind Speed Gust Speed Precip Events Conditions
12:56 AM 53.1 °F 12.0 °F 20% 30.12 in 10.0 mi NNW 11.5 mph - N/A   Clear
1:56 AM 53.1 °F 15.1 °F 22% 30.13 in 10.0 mi NNW 12.7 mph - N/A   Clear
2:56 AM 52.0 °F 17.1 °F 25% 30.12 in 10.0 mi NNW 12.7 mph - N/A   Clear
3:56 AM 52.0 °F 17.1 °F 25% 30.12 in 10.0 mi NNW 19.6 mph - N/A   Clear
4:56 AM 51.1 °F 18.0 °F 27% 30.13 in 10.0 mi NNW 15.0 mph - N/A   Clear
5:56 AM 50.0 °F 17.1 °F 27% 30.14 in 10.0 mi NNW 12.7 mph - N/A   Clear
6:56 AM 50.0 °F 17.1 °F 27% 30.17 in 10.0 mi North 11.5 mph - N/A   Clear
7:56 AM 53.1 °F 17.1 °F 24% 30.18 in 10.0 mi NNW 20.7 mph 25.3 mph N/A   Partly Cloudy
8:56 AM 55.9 °F 18.0 °F 23% 30.20 in 10.0 mi North 15.0 mph 23.0 mph N/A   Partly Cloudy
9:56 AM 59.0 °F 19.0 °F 21% 30.19 in 10.0 mi North 19.6 mph 29.9 mph N/A   Partly Cloudy
10:56 AM 60.1 °F 17.1 °F 19% 30.19 in 10.0 mi Variable 5.8 mph 17.3 mph N/A   Partly Cloudy
11:56 AM 63.0 °F 16.0 °F 16% 30.16 in 10.0 mi NE 4.6 mph - N/A   Partly Cloudy
12:56 PM 63.0 °F 17.1 °F 17% 30.14 in 10.0 mi North 5.8 mph - N/A   Partly Cloudy
1:56 PM 64.9 °F 17.1 °F 16% 30.10 in 10.0 mi ENE 10.4 mph 17.3 mph N/A   Partly Cloudy
2:56 PM 66.9 °F 17.1 °F 15% 30.06 in 10.0 mi Variable 4.6 mph - N/A   Partly Cloudy
3:56 PM 66.0 °F 15.1 °F 14% 30.05 in 10.0 mi Variable 3.5 mph - N/A   Partly Cloudy
4:56 PM 66.0 °F 14.0 °F 13% 30.04 in 10.0 mi Calm Calm - N/A   Partly Cloudy
5:56 PM 64.9 °F 14.0 °F 14% 30.03 in 10.0 mi ESE 5.8 mph - N/A   Partly Cloudy
6:56 PM 63.0 °F 15.1 °F 16% 30.03 in 10.0 mi East 6.9 mph - N/A   Scattered Clouds
7:56 PM 59.0 °F 17.1 °F 20% 30.03 in 10.0 mi Calm Calm - N/A   Partly Cloudy
8:56 PM 53.1 °F 17.1 °F 24% 30.04 in 10.0 mi WNW 9.2 mph - N/A   Partly Cloudy
9:56 PM 52.0 °F 17.1 °F 25% 30.04 in 10.0 mi WNW 6.9 mph - N/A   Clear
10:56 PM 52.0 °F 16.0 °F 24% 30.04 in 10.0 mi WNW 8.1 mph - N/A   Clear
11:56 PM 52.0 °F 16.0 °F 24% 30.04 in 10.0 mi WNW 8.1 mph - N/A   Partly Cloudy